This demonstration page uses our WeatherBlox Daily Observations layout. Learn more.

Left ArrowRight Arrow

34.02893, -84.19858

Hourly Observations for February 5, 2020

Temp ( °F °C ) Dew Point ( °F °C ) Humidity (%) Winds ( mph kmh ) Pressure ( in mb ) Visibility ( mi km ) Precip ( " mm )
12:28 am 00:28 Cloudy 62 16.7 56 13.3 80 80 SSW 8 13 29.95 1014 10 16 0.00 0.00
12:53 am 00:53 Cloudy 62 16.7 57 13.9 84 84 S 8 13 29.94 1014 10 16 0.00 0.00
1:53 am 01:53 Cloudy with Light Rain 60 15.6 58 14.4 93 93 S 3 6 29.93 1013 8 13 0.01 0.25
2:16 am 02:16 Cloudy with Light Rain 59 15 58 14.4 96 96 SSW 5 7 29.94 1014 10 16 0.02 0.51
2:53 am 02:53 Cloudy 59 15 58 14.4 96 96 SSE 3 6 29.92 1013 10 16 0.02 0.51
3:53 am 03:53 Cloudy 60 15.6 58 14.4 93 93 S 7 11 29.91 1013 8 13 0.00 0.00
4:53 am 04:53 Cloudy 60 15.6 59 15 96 96 S 6 9 29.91 1013 9 14 0.00 0.00
5:53 am 05:53 Cloudy 60 15.6 60 15.6 100 100 S 7 11 29.91 1013 10 16 0.03 0.76
6:53 am 06:53 Cloudy 61 16.1 60 15.6 97 97 S 7 11 29.92 1013 9 14 0.00 0.00
7:53 am 07:53 Cloudy 62 16.7 60 15.6 93 93 SSW 9 15 29.94 1014 9 14 0.00 0.00
8:53 am 08:53 Cloudy 62 16.7 61 16.1 96 96 S 10 17 29.93 1013 9 14 0.00 0.00
9:53 am 09:53 Cloudy 63 17.2 61 16.1 93 93 S 12 19 29.93 1014 8 13 0.00 0.00
10:53 am 10:53 Cloudy 63 17.2 60 15.6 90 90 S 12 19 29.95 1014 8 13 0.00 0.00
11:53 am 11:53 Cloudy 63 17.2 60 15.6 90 90 S 13 20 29.92 1013 9 14 0.00 0.00
12:31 pm 12:31 Cloudy 64 17.8 60 15.6 87 87 S 10 17 29.90 1013 10 16 0.00 0.00
12:53 pm 12:53 Cloudy 64 17.8 60 15.6 87 87 S 6 9 29.88 1012 10 16 0.00 0.00
1:53 pm 13:53 Cloudy 65 18.3 60 15.6 84 84 S 7 11 29.83 1010 10 16 0.00 0.00
2:53 pm 14:53 Cloudy 66 18.9 60 15.6 81 81 S 13 20 29.80 1009 10 16 0.00 0.00
2:57 pm 14:57 Cloudy 66 18.9 60 15.6 81 81 S 12 19 29.80 1009 10 16 0.00 0.00
3:53 pm 15:53 Cloudy 65 18.3 60 15.6 84 84 S 8 13 29.79 1009 10 16 0.00 0.00
4:53 pm 16:53 Cloudy 65 18.3 60 15.6 84 84 SSE 7 11 29.80 1009 10 16 0.00 0.00
5:53 pm 17:53 Cloudy 64 17.8 60 15.6 87 87 SSE 7 11 29.80 1009 10 16 0.00 0.00
6:11 pm 18:11 Cloudy with Nearby Thunderstorms 64 17.8 61 16.1 90 90 SSE 8 13 29.78 1009 6 10 0.02 0.51
6:41 pm 18:41 Cloudy with Light Rain 63 17.2 61 16.1 93 93 VRB 6 9 29.74 1007 8 13 0.04 1.02
6:46 pm 18:46 Cloudy with Light Rain 63 17.2 62 16.7 97 97 S 6 9 29.75 1008 9 14 0.04 1.02
6:53 pm 18:53 Cloudy 63 17.2 62 16.7 97 97 VRB 5 7 29.72 1007 9 14 0.04 1.02
7:29 pm 19:29 Cloudy 63 17.2 61 16.1 93 93 SSE 9 15 29.72 1007 10 16 0.00 0.00
7:53 pm 19:53 Mostly Cloudy 63 17.2 61 16.1 93 93 SSE 8 13 29.72 1006 10 16 0.00 0.00
8:14 pm 20:14 Partly Cloudy 62 16.7 61 16.1 96 96 S 7 11 29.73 1007 10 16 0.00 0.00
8:53 pm 20:53 Mostly Cloudy with Light Rain 62 16.7 60 15.6 93 93 S 13 20 29.74 1007 8 13 0.01 0.25
9:31 pm 21:31 Mostly Cloudy 61 16.1 59 15 93 93 S 9 15 29.73 1007 10 16 0.01 0.25
9:53 pm 21:53 Cloudy with Light Rain 61 16.1 59 15 93 93 S 14 22 29.74 1007 9 14 0.01 0.25
10:42 pm 22:42 Cloudy with Rain 60 15.6 59 15 96 96 S 9 15 29.73 1007 4 6 0.17 4.32
10:53 pm 22:53 Cloudy with Rain 60 15.6 59 15 96 96 SSE 10 17 29.71 1006 5 8 0.21 5.33
11:53 pm 23:53 Cloudy with Light Rain 61 16.1 60 15.6 97 97 VRB 7 11 29.69 1006 5 8 0.15 3.81

Powered by AerisWeather